This is the latest recevied weather packets stored in our database for station/object IW5CI-13. If no packets are shown the sender has not sent any weather packets the latest 10 day(s).
| Time | Temp. | Humidity | Pressure | Rain* | Wind** | Luminosity | Snow |
|---|---|---|---|---|---|---|---|
| 1777744244 | 18.89° C | 19% | 1019.9 hPa | - | - | - | - |
| 1777743040 | 20° C | 19% | 1019.8 hPa | - | - | - | - |
| 1777740632 | 20° C | 18% | 1019.6 hPa | - | - | - | - |
| 1777739428 | 20.56° C | 15% | 1019.6 hPa | - | - | - | - |
| 1777738224 | 20.56° C | 14% | 1019.7 hPa | - | - | - | - |
| 1777737020 | 20° C | 14% | 1019.9 hPa | - | - | - | - |
| 1777735816 | 20.56° C | 14% | 1020 hPa | - | - | - | - |
| 1777734612 | 20° C | 15% | 1020.2 hPa | - | - | - | - |
| 1777733407 | 20.56° C | 15% | 1020.3 hPa | - | - | - | - |
| 1777732203 | 20° C | 15% | 1020.5 hPa | - | - | - | - |
| 1777730999 | 19.44° C | 15% | 1020.9 hPa | - | - | - | - |
| 1777729795 | 20° C | 15% | 1021.2 hPa | - | - | - | - |
| 1777728591 | 20° C | 15% | 1021.4 hPa | - | - | - | - |
| 1777727387 | 20° C | 15% | 1021.7 hPa | - | - | - | - |
| 1777726183 | 19.44° C | 16% | 1021.9 hPa | - | - | - | - |
| 1777724979 | 20° C | 16% | 1022.3 hPa | - | - | - | - |
| 1777723775 | 19.44° C | 16% | 1022.6 hPa | - | - | - | - |
| 1777722571 | 18.33° C | 16% | 1022.9 hPa | - | - | - | - |
| 1777720162 | 18.89° C | 16% | 1023.6 hPa | - | - | - | - |
| 1777718958 | 18.89° C | 16% | 1023.9 hPa | - | - | - | - |
| 1777717754 | 18.89° C | 16% | 1024.2 hPa | - | - | - | - |
| 1777716550 | 19.44° C | 16% | 1024.5 hPa | - | - | - | - |
| 1777715346 | 18.89° C | 16% | 1024.7 hPa | - | - | - | - |
| 1777714143 | 18.33° C | 17% | 1025 hPa | - | - | - | - |
| 1777711736 | 15.56° C | 21% | 1025.4 hPa | - | - | - | - |
* Rain since midnight (hover to see other rain measurements)
** Current wind speed in m/s (hover to see current wind gust speed)